CW5212 Weather Reports


Display with metric or nautical units.
time (UTC)temp
F
wind
direction
speed
MPH
gust
MPH
rain 1hr
in
rain 24hr
in
rain mn
in
humidity
%
barometer
mb
20260902101529 60 114 8.0 14.0 0.00 0.00 0.00 57 939.0
20260902100019 60 98 7.0 12.0 0.00 0.00 0.00 57 939.1
20260902094558 60 103 7.0 11.0 0.00 0.00 0.00 57 939.2
20260902093044 59 86 8.0 10.0 0.00 0.00 0.00 59 939.3
20260902091525 59 96 7.0 10.0 0.00 0.00 0.00 59 939.4
20260902090010 60 82 8.0 11.0 0.00 0.00 0.00 57 939.6
20260902084549 60 111 9.0 14.0 0.00 0.00 0.00 56 939.7
20260902083028 60 95 9.0 14.0 0.00 0.00 0.00 55 939.7
20260902081510 61 109 9.0 15.0 0.00 0.00 0.00 55 939.9
20260902080052 61 99 9.0 15.0 0.00 0.00 0.00 55 939.9
20260902074535 61 116 8.0 14.0 0.00 0.00 0.00 56 939.9
20260902073012 61 109 11.0 15.0 0.00 0.00 0.00 55 939.9
20260902071600 62 101 11.0 17.0 0.00 0.00 0.00 55 939.8
20260902071502 62 95 11.0 17.0 0.00 0.00 0.00 55 939.9
20260902070043 61 111 9.0 14.0 0.00 0.00 0.00 58 939.9
20260902064534 62 105 8.0 14.0 0.00 0.00 0.00 56 940.0
20260902063105 62 94 7.0 13.0 0.00 0.00 0.00 55 939.9
20260902063003 62 121 7.0 13.0 0.00 0.00 0.00 55 940.0
20260902060022 62 90 9.0 12.0 0.00 0.00 0.00 55 939.9
20260902054547 62 105 7.0 13.0 0.00 0.00 0.00 55 940.0
20260902053035 63 84 9.0 15.0 0.00 0.00 0.00 54 940.0
20260902051519 63 92 8.0 13.0 0.00 0.00 0.00 53 940.1
20260902050007 63 93 10.0 14.0 0.00 0.00 0.00 53 940.1
20260902044541 63 87 8.0 12.0 0.00 0.00 0.00 54 940.2
20260902043033 63 105 8.0 13.0 0.00 0.00 0.00 53 940.2
20260902041533 63 129 9.0 14.0 0.00 0.00 0.00 54 940.4
20260902040053 63 113 9.0 15.0 0.00 0.00 0.00 56 940.4
20260902034539 63 130 8.0 15.0 0.00 0.00 0.00 58 940.4
20260902033023 63 114 8.0 12.0 0.00 0.00 0.00 60 940.3
20260902031511 63 107 8.0 11.0 0.00 0.00 0.00 60 940.1
20260902030053 63 128 7.0 10.0 0.00 0.00 0.00 60 940.1
20260902024539 63 100 8.0 13.0 0.00 0.00 0.00 58 940.0
20260902023027 63 98 8.0 10.0 0.00 0.00 0.00 59 940.0
20260902021514 63 80 6.0 8.0 0.00 0.00 0.00 57 940.1
20260902020057 64 88 5.0 8.0 0.00 0.00 0.00 54 940.2
20260902014539 65 107 4.0 7.0 0.00 0.00 0.00 53 940.2
20260902013034 65 158 2.0 8.0 0.00 0.00 0.00 52 940.2
20260902011517 66 203 4.0 7.0 0.00 0.00 0.00 51 940.3
20260902010052 66 121 4.0 9.0 0.00 0.00 0.00 51 940.5
20260902004536 67 90 2.0 8.0 0.00 0.00 0.00 54 940.7
20260902003018 67 109 5.0 9.0 0.00 0.00 0.00 54 940.9
20260902001514 67 79 8.0 17.0 0.00 0.00 0.00 50 940.9
20260902000054 67 65 7.0 17.0 0.00 0.00 0.00 51 940.9
20260901234530 67 119 15.0 23.0 0.00 0.00 0.00 54 941.3
20260901233016 67 186 8.0 18.0 0.00 0.00 0.00 51 941.0
20260901231600 66 163 9.0 16.0 0.00 0.00 0.00 55 941.0
20260901231502 67 144 10.0 16.0 0.00 0.00 0.00 55 940.9
20260901230051 66 121 3.0 7.0 0.00 0.00 0.00 60 940.9
20260901224523 64 144 3.0 8.0 0.00 0.00 0.00 64 941.3
20260901223006 66 136 6.0 14.0 0.00 0.00 0.00 57 941.5
20260901221545 70 146 7.0 16.0 0.00 0.00 0.00 43 941.4
20260901220042 71 189 5.0 12.0 0.00 0.00 0.00 45 941.4
20260901214517 71 144 9.0 14.0 0.00 0.00 0.00 43 941.8
20260901213059 69 156 7.0 19.0 0.00 0.00 0.00 48 941.8
20260901211539 69 150 7.0 16.0 0.00 0.00 0.00 50 941.8
20260901210027 69 112 9.0 16.0 0.00 0.00 0.00 48 941.9
20260901204515 70 183 9.0 17.0 0.00 0.00 0.00 47 942.0
20260901203107 71 118 11.0 18.0 0.00 0.00 0.00 45 941.9
20260901201532 69 154 9.0 16.0 0.00 0.00 0.00 49 942.0
20260901200021 69 143 8.0 17.0 0.00 0.00 0.00 49 942.3
20260901194603 69 120 11.0 19.0 0.00 0.00 0.00 50 942.5
20260901193035 67 84 10.0 21.0 0.00 0.00 0.00 54 942.8
20260901191516 65 88 11.0 20.0 0.00 0.00 0.00 59 943.0
20260901190110 66 107 12.0 21.0 0.00 0.00 0.00 58 943.2
20260901184532 65 115 13.0 19.0 0.00 0.00 0.00 60 943.3
20260901183018 66 120 12.0 19.0 0.00 0.00 0.00 60 943.4
20260901181641 64 106 13.0 18.0 0.00 0.00 0.00 61 943.5
20260901180053 64 89 12.0 21.0 0.00 0.00 0.00 64 943.6
20260901174547 62 90 12.0 22.0 0.00 0.00 0.00 67 943.5
20260901173039 62 137 10.0 16.0 0.00 0.00 0.00 67 943.4
20260901171544 62 130 9.0 18.0 0.00 0.00 0.00 66 943.5
20260901170035 62 118 9.0 20.0 0.00 0.00 0.00 69 943.5
20260901164525 61 115 11.0 17.0 0.00 0.00 0.00 70 943.4
20260901163024 59 95 13.0 23.0 0.00 0.00 0.00 73 943.4
20260901161512 59 119 12.0 21.0 0.00 0.00 0.00 76 943.3
20260901160100 58 128 13.0 18.0 0.00 0.00 0.00 76 943.2
20260901160002 58 124 12.0 19.0 0.00 0.00 0.00 78 943.2
20260901154554 57 101 11.0 17.0 0.00 0.00 0.00 80 943.2
20260901153055 57 100 11.0 17.0 0.00 0.00 0.00 81 943.3
20260901151556 56 86 9.0 18.0 0.00 0.00 0.00 85 943.3
20260901150113 55 88 11.0 18.0 0.00 0.00 0.00 89 943.2
20260901150025 55 126 11.0 18.0 0.00 0.00 0.00 89 943.2
20260901144510 54 109 11.0 17.0 0.00 0.00 0.00 90 943.3
20260901143014 54 90 11.0 17.0 0.00 0.00 0.00 92 943.1
20260901141516 53 90 11.0 16.0 0.00 0.00 0.00 93 943.2
20260901140023 53 99 11.0 16.0 0.00 0.00 0.00 94 943.1
20260901134527 52 109 10.0 15.0 0.00 0.00 0.00 95 943.1
20260901133032 52 99 9.0 12.0 0.00 0.00 0.00 97 943.1
20260901131531 52 100 8.0 12.0 0.00 0.00 0.00 98 943.1
20260901130013 52 96 8.0 11.0 0.00 0.00 0.00 100 943.0
20260901124551 52 92 5.0 8.0 0.00 0.00 0.00 100 943.2
20260901123028 52 63 3.0 6.0 0.00 0.00 0.00 100 943.3
20260901121506 52 67 4.0 8.0 0.00 0.00 0.00 100 943.2
20260901120053 52 69 5.0 8.0 0.00 0.00 0.00 99 943.1
20260901114520 52 68 4.0 7.0 0.00 0.00 0.00 97 943.2
20260901113101 52 80 3.0 6.0 0.00 0.00 0.00 97 943.3
20260901113001 52 70 2.0 5.0 0.00 0.00 0.00 96 943.3
20260901111535 52 89 5.0 8.0 0.00 0.00 0.00 96 943.2
20260901110015 53 86 6.0 10.0 0.00 0.00 0.00 94 943.1
20260901104552 53 95 5.0 7.0 0.00 0.00 0.00 92 943.3
20260901103028 52 90 4.0 8.0 0.00 0.00 0.00 95 943.3